GAOFEN 4

Last updated on Tue Nov 21 2023 00:02:24 GMT+0000 (Coordinated Universal Time)

1 41194U 15083A 23324.54563154 -.00000329 00000+0 00000+0 0 9996 2 41194 0.0234 313.2779 0004026 270.7895 137.3261 1.00266852 29107

Satellite not in orbit

GAOFEN 4